Weather History for CYQT - November, 2012

Change the Weather History Date:

Friday, November 16, 2012

  Actual Average Record
Temperature  
Mean Temperature 24 °F -  
Max Temperature 33 °F -14 °F - ()
Min Temperature 15 °F -27 °F - ()
Degree Days  
Heating Degree Days 41    
Moisture  
Dew Point 19 °F    
Average Humidity 80    
Maximum Humidity 100    
Minimum Humidity 55    
Precipitation  
Precipitation 0.00 in 0.01 in - ()
Sea Level Pressure  
Sea Level Pressure 30.52 in    
Wind  
Wind Speed 2 mph ()    
Max Wind Speed 6 mph    
Max Gust Speed -    
Visibility 16.3 miles    
Events      
T = Trace of Precipitation, MM = Missing Value Source: Averaged Metar Reports

Daily Weather History Graph

Daily Weather History Graph

Search for Another Location

Airport or City:

Trip Planner

Search our weather history database for the weather conditions in past years. The results will help you decide how hot, cold, wet, or windy it might be!

Date:

Astronomy

Nov. 16, 2012 Rise Set
Actual Time 8:07 AM EST 5:16 PM EST
Civil Twilight 7:32 AM EST 5:51 PM EST
Nautical Twilight 6:54 AM EST 6:29 PM EST
Astronomical Twilight 6:17 AM EST 7:06 PM EST
Moon 11:05 AM EST (11/16) 8:12 PM EST (11/16)
Length of Visible Light 10h 18m
Length of Day
9h 09m
Waxing Crescent, 11% of the Moon is Illuminated
Nov 16
Waxing Crescent
Nov 20
First Quarter
Nov 28
Full
Dec 6
Last Quarter
Dec 13
New

Hourly Weather History & Observations

Time (EST) Temp. Windchill Dew Point Humidity Pressure Visibility Wind Dir Wind Speed Gust Speed Precip Events Conditions
12:00 AM 24.8 °F 19.1 °F 14.0 °F 64% 30.50 in 15.0 mi WNW 4.6 mph - N/A   Clear
1:00 AM 23 °F - 14 °F 58% 30.53 in 10 mi North 2.3 mph - -  
1:00 AM 23.0 °F - 14.0 °F 68% 30.52 in 15.0 mi NNW 2.3 mph - N/A   Clear
2:00 AM 21.2 °F - 14.0 °F 74% 30.53 in 15.0 mi Calm Calm - N/A   Clear
3:00 AM 19.4 °F - 15.8 °F 86% 30.55 in 15.0 mi NW 2.3 mph - N/A   Clear
4:00 AM 19.4 °F 14.3 °F 15.8 °F 86% 30.55 in 15.0 mi NW 3.5 mph - N/A   Clear
5:00 AM 17.6 °F 12.3 °F 14.0 °F 86% 30.55 in 15.0 mi WSW 3.5 mph - N/A   Clear
6:00 AM 15.8 °F - 14.0 °F 93% 30.54 in 15.0 mi Calm Calm - N/A   Clear
7:00 AM 16 °F - 14 °F 90% 30.56 in 10 mi West 4.6 mph - -  
7:00 AM 15.8 °F 10.2 °F 14.0 °F 93% 30.56 in 15.0 mi West 3.5 mph - N/A   Clear
8:00 AM 17.6 °F 12.3 °F 14.0 °F 86% 30.56 in 20.0 mi WNW 3.5 mph - N/A   Partly Cloudy
9:00 AM 17.6 °F 12.3 °F 15.8 °F 93% 30.58 in 20.0 mi WSW 3.5 mph - N/A   Partly Cloudy
10:00 AM 23.0 °F - 17.6 °F 80% 30.57 in 20.0 mi WNW 2.3 mph - N/A   Partly Cloudy
11:00 AM 26.6 °F - 17.6 °F 69% 30.58 in 20.0 mi Calm Calm - N/A   Mostly Cloudy
12:00 PM 30.2 °F - 17.6 °F 60% 30.57 in 20.0 mi Calm Calm - N/A   Mostly Cloudy
1:00 PM 32.0 °F - 17.6 °F 55% 30.55 in 20.0 mi SE 2.3 mph - N/A   Overcast
2:00 PM 33.8 °F 29.6 °F 21.2 °F 60% 30.53 in 20.0 mi South 4.6 mph - N/A   Overcast
3:00 PM 33.8 °F 28.6 °F 21.2 °F 60% 30.51 in 20.0 mi SSE 5.8 mph - N/A   Overcast
4:00 PM 33.8 °F 28.6 °F 24.8 °F 70% 30.50 in 20.0 mi South 5.8 mph - N/A   Overcast
5:00 PM 32.0 °F 28.7 °F 26.6 °F 80% 30.50 in 20.0 mi South 3.5 mph - N/A   Overcast
6:00 PM 32.0 °F - 26.6 °F 80% 30.48 in 15.0 mi Calm Calm - N/A   Mostly Cloudy
7:00 PM 26 °F - 24 °F 89% 30.47 in 10 mi East 1.2 mph - -  
7:00 PM 26.6 °F - 24.8 °F 93% 30.47 in 15.0 mi Calm Calm - N/A   Scattered Clouds
8:00 PM 26.6 °F - 24.8 °F 93% 30.47 in 15.0 mi Calm Calm - N/A   Mostly Cloudy
9:00 PM 24.8 °F 19.1 °F 23.0 °F 93% 30.46 in 15.0 mi NW 4.6 mph - N/A   Clear
10:00 PM 23.0 °F - 23.0 °F 100% 30.45 in 15.0 mi NW 2.3 mph - N/A   Clear
11:00 PM 23.0 °F - 23.0 °F 100% 30.43 in 15.0 mi Variable 2.3 mph - N/A   Partly Cloudy